Volver al catálogo

STARLINK-2545

ActivoComunicacionesVLEO
NORAD 48289·PAYLOAD·🇺🇸 United States

Lanzado Apr 29, 2021 desde Cape Canaveral Space Force Station

Loading…

Próximos Pases (próximas 24 horas)

TLE

ActualizadoSource: CelesTrak SupGP

Época: Sep 14, 2026, 21:48 UTC

1 48289C 21036P   26257.90881944  .00049052  00000+0  15772-2 0  2578
2 48289  53.1575 275.1028 0001392  90.9031 339.3649 15.31682075    17

Sigue STARLINK-2545 en tiempo real con AllMySat

Download on the App Store